Stratford, CT

5:16 PM EST on December 07, 2016 (GMT -0500)
Sikorsky Memorial

Weather History for KBDR - October, 2013

Change the Weather History Date:

Saturday, October 5, 2013

  Actual Average Record
Temperature  
Mean Temperature 67 °F 59 °F  
Max Temperature 71 °F 67 °F 84 °F (1967)
Min Temperature 63 °F 50 °F 33 °F (1965)
Degree Days  
Heating Degree Days 0 7  
Month to date heating degree days 0 32  
Since 1 July heating degree days 81 100  
Cooling Degree Days 2 1  
Month to date cooling degree days 16 5  
Year to date cooling degree days 997 821  
Growing Degree Days 17 (Base 50)    
Moisture  
Dew Point 61 °F    
Average Humidity 85    
Maximum Humidity 93    
Minimum Humidity 76    
Precipitation  
Precipitation T in 0.12 in 1.68 in (1962)
Month to date precipitation 0.02 0.58  
Year to date precipitation 29.52 32.96  
Snow  
Snow 0.00 in 0.00 in 0.00 in (2002)
Month to date snowfall 0.0 0.0  
Since 1 July snowfall 0.0 0.0  
Snow Depth 0.00 in    
Sea Level Pressure  
Sea Level Pressure 30.08 in    
Wind  
Wind Speed 5 mph (ESE)    
Max Wind Speed 9 mph    
Max Gust Speed 12 mph    
Visibility 9 miles    
Events Rain    
T = Trace of Precipitation, MM = Missing Value Source: NWS Daily Summary

Daily Weather History Graph

Daily Weather History Graph

Search for Another Location

Airport or City:

Trip Planner

Search our weather history database for the weather conditions in past years. The results will help you decide how hot, cold, wet, or windy it might be!

Date:

Astronomy

Oct. 05, 2013 Rise Set
Actual Time 6:53 AM EDT 6:27 PM EDT
Civil Twilight 6:26 AM EDT 6:54 PM EDT
Nautical Twilight 5:54 AM EDT 7:26 PM EDT
Astronomical Twilight 5:21 AM EDT 7:58 PM EDT
Moon 7:30 AM EDT (10/5) 6:43 PM EDT (10/5)
Length of Visible Light 12h 28m
Length of Day
11h 33m
New Moon, 0% of the Moon is Illuminated
Oct 5
New Moon
Oct 11
First Quarter
Oct 18
Full
Oct 26
Last Quarter
Nov 3
New

Hourly Weather History & Observations

Time (EDT) Temp. Dew Point Humidity Pressure Visibility Wind Dir Wind Speed Gust Speed Precip Events Conditions
12:52 AM 64.0 °F 60.1 °F 87% 30.05 in 10.0 mi NNE 6.9 mph - N/A   Overcast
1:52 AM 63.0 °F 59.0 °F 87% 30.05 in 10.0 mi NNE 6.9 mph - N/A   Overcast
2:52 AM 64.0 °F 59.0 °F 84% 30.04 in 10.0 mi NE 6.9 mph - N/A   Overcast
3:52 AM 63.0 °F 59.0 °F 87% 30.05 in 10.0 mi NNE 6.9 mph - N/A   Overcast
4:52 AM 63.0 °F 59.0 °F 87% 30.06 in 10.0 mi NNE 3.5 mph - N/A   Overcast
5:52 AM 63.0 °F 57.9 °F 84% 30.07 in 10.0 mi NNE 5.8 mph - N/A   Overcast
6:52 AM 63.0 °F 57.9 °F 84% 30.08 in 10.0 mi NNE 5.8 mph - N/A   Overcast
7:52 AM 63.0 °F 57.9 °F 84% 30.08 in 10.0 mi NE 5.8 mph - N/A   Overcast
8:52 AM 64.0 °F 59.0 °F 84% 30.10 in 10.0 mi NE 4.6 mph - N/A   Overcast
9:19 AM 64.4 °F 59.0 °F 83% 30.10 in 10.0 mi ENE 4.6 mph - N/A   Overcast
9:52 AM 64.9 °F 59.0 °F 81% 30.10 in 10.0 mi ENE 3.5 mph - N/A   Overcast
10:52 AM 66.9 °F 60.1 °F 79% 30.11 in 10.0 mi Calm Calm - N/A   Overcast
11:30 AM 66.2 °F 60.8 °F 83% 30.10 in 10.0 mi East 3.5 mph - N/A   Overcast
11:52 AM 68.0 °F 61.0 °F 78% 30.10 in 8.0 mi East 5.8 mph - N/A   Overcast
12:52 PM 69.1 °F 62.1 °F 78% 30.08 in 8.0 mi Variable 5.8 mph - N/A   Overcast
1:52 PM 70.0 °F 62.1 °F 76% 30.06 in 8.0 mi SSE 4.6 mph - N/A   Mostly Cloudy
2:07 PM 71.6 °F 62.6 °F 73% 30.05 in 8.0 mi South 6.9 mph - N/A   Scattered Clouds
2:52 PM 69.1 °F 62.1 °F 78% 30.05 in 7.0 mi SSW 8.1 mph - N/A   Clear
3:52 PM 70.0 °F 62.1 °F 76% 30.06 in 9.0 mi South 5.8 mph - N/A   Clear
4:52 PM 70.0 °F 62.1 °F 76% 30.05 in 10.0 mi South 5.8 mph - N/A   Clear
5:52 PM 69.1 °F 62.1 °F 78% 30.06 in 10.0 mi SSW 4.6 mph - N/A   Clear
6:52 PM 69.1 °F 62.1 °F 78% 30.06 in 10.0 mi Calm Calm - N/A   Clear
7:52 PM 66.9 °F 63.0 °F 87% 30.07 in 9.0 mi Calm Calm - N/A   Clear
8:32 PM 66.2 °F 62.6 °F 88% 30.07 in 9.0 mi SSE 4.6 mph - N/A   Mostly Cloudy
8:52 PM 68.0 °F 64.0 °F 87% 30.09 in 9.0 mi South 6.9 mph - N/A   Overcast
9:52 PM 66.9 °F 64.0 °F 90% 30.09 in 7.0 mi South 5.8 mph - N/A   Scattered Clouds
10:04 PM 66.2 °F 64.4 °F 94% 30.10 in 7.0 mi South 4.6 mph - N/A   Mostly Cloudy
10:15 PM 66.2 °F 64.4 °F 94% 30.10 in 7.0 mi SSE 3.5 mph - N/A   Mostly Cloudy
10:52 PM 66.0 °F 63.0 °F 90% 30.10 in 7.0 mi SE 3.5 mph - N/A   Mostly Cloudy
11:52 PM 66.0 °F 63.0 °F 90% 30.10 in 6.0 mi Calm Calm - 0.00 in Rain Light Rain